Hourly Data Report for September 08, 2017

All times are specified in Local Standard Time (LST). Add 1 hour to adjust for Daylight Saving Time where and when it is observed.

CHARLOTTETOWN A
PRINCE EDWARD ISLAND

46°17'21.000" N
63°07'09.000" W
48.50 m
8300301
71706
YYG

Download Data

Hourly Data (September 2017)
Hourly Data Report for September 8, 2017
Temp Definition
°C
Dew Point Temp Definition
°C
Rel Hum Definition
%
Wind Dir Definition
10's deg

Wind Spd Definition
km/h
Visibility Definition
km
Stn Press Definition
kPa
Hmdx Definition


Wind Chill Definition


Weather Definition


TIME
00:00 Legend Double Dagger 18.2 16.6 90 22 14 24.1 100.43     LegendNANA
01:00 Legend Double Dagger 17.6 16.0 90 23 22 24.1 100.44     LegendNANA
02:00 Legend Double Dagger 16.5 14.5 88 24 13 24.1 100.47     Mostly Cloudy
03:00 Legend Double Dagger 16.5 13.8 84 22 21 24.1 100.49     LegendNANA
04:00 Legend Double Dagger 16.5 14.2 86 23 13 24.1 100.49     LegendNANA
05:00 Legend Double Dagger 16.4 14.2 87 25 17 24.1 100.53     Cloudy
06:00 Legend Double Dagger 16.0 14.2 89 25 14 24.1 100.59     LegendNANA
07:00 Legend Double Dagger 16.3 14.3 88 23 15 24.1 100.67     LegendNANA
08:00 Legend Double Dagger 17.3 14.4 83 22 21 24.1 100.73     Mostly Cloudy
09:00 Legend Double Dagger 17.1 14.1 83 23 21 24.1 100.80     LegendNANA
10:00 Legend Double Dagger 17.4 13.9 80 23 25 24.1 100.84     LegendNANA
11:00 Legend Double Dagger 17.3 14.0 81 25 19 24.1 100.89     Mostly Cloudy
12:00 Legend Double Dagger 19.1 14.7 75 24 19 24.1 100.86     LegendNANA
13:00 Legend Double Dagger 20.0 13.9 68 23 26 24.1 100.88     LegendNANA
14:00 Legend Double Dagger 20.6 13.3 62 23 23 24.1 100.91     Mainly Clear
15:00 Legend Double Dagger 21.1 13.2 60 24 22 24.1 100.93     LegendNANA
16:00 Legend Double Dagger 21.1 12.7 58 24 21 24.1 100.99     LegendNANA
17:00 Legend Double Dagger 20.5 11.9 57 25 16 24.1 101.03     Clear
18:00 Legend Double Dagger 19.1 10.3 56 24 13 24.1 101.05     LegendNANA
19:00 Legend Double Dagger 17.4 10.4 63 24 12 24.1 101.14     LegendNANA
20:00 Legend Double Dagger 16.2 10.2 67 24 9 24.1 101.21     Clear
21:00 Legend Double Dagger 15.6 10.7 72 23 9 24.1 101.26     LegendNANA
22:00 Legend Double Dagger 14.8 11.3 79 23 10 24.1 101.27     LegendNANA
23:00 Legend Double Dagger 14.5 11.9 84 22 11 24.1 101.31     Mainly Clear

Notes on Data Quality.

Legend

  • E = Estimated
  • M = Missing
  • NA = Not Available
  • ‡ = Partner data that is not subject to review by the National Climate Archives
Date modified: